Regional Weather Roundup
Issued by NWS State College, PA

Home | Current Version | Previous Version | Graphics & Text | Print | Product List | Glossary Off
Versions: 1 2 3 4 5 6 7 8 9 10 11 12 13 14 15 16 17 18 19 20 21 22 23 24 25 26 27 28 29 30 31 32 33 34 35 36 37 38 39 40 41 42 43 44 45 46 47 48 49 50

000
ASUS41 KCTP 100203
RWRCTP

REGIONAL WEATHER ROUNDUP
NATIONAL WEATHER SERVICE STATE COLLEGE PA
1000 PM EDT WED JUL 09 2014

Note: "fair" indicates few or no clouds below 12,000 feet with no
significant weather and/or obstructions to visibility.

* = STATION THAT DOES NOT REPORT PRECIPITATION /E.G. RAIN...SNOW...ETC/
    THUNDER OR FOG.

PAZ002>004-007>009-013>016-020>023-029>032-100300-
WESTERN PENNSYLVANIA

CITY           SKY/WX    TMP DP  RH WIND       PRES   REMARKS
ERIE           CLEAR     65  55  70 CALM      30.01R
MEADVILLE      MOCLDY    64  58  80 N5        30.02R
FRANKLIN*      CLOUDY    64  55  72 CALM      30.03R
NEW CASTLE     NOT AVBL
BEAVER COUNTY  NOT AVBL
BUTLER*        CLOUDY    70  55  60 CALM      30.03R
PITTSBURGH INT MOCLDY    73  58  59 N13       30.00R
PITTSBURGH     MOCLDY    77  53  43 NW5       29.98R
INDIANA*       PTCLDY    66  61  82 CALM      30.04R
LATROBE        PTCLDY    70  64  83 CALM      30.00R
WASHINGTON CO* MOCLDY    63  59  88 CALM      30.00R
$$

PAZ004>006-010>012-017>019-024>028-033>037-041-042-045-046-049>053-100300-
CENTRAL PENNSYLVANIA

CITY           SKY/WX    TMP DP  RH WIND       PRES   REMARKS
BRADFORD       CLOUDY    62  56  80 N3        30.04R
DUBOIS         CLOUDY    69  59  70 N7        30.02R
CLEARFIELD     PTCLDY    65  61  87 N6        30.01R
JOHNSTOWN      CLEAR     68  55  63 CALM      30.04R
ALTOONA        CLEAR     68  61  78 CALM      30.01R
STATE COLLEGE  CLEAR     68  61  77 CALM      30.00R
WILLIAMSPORT   CLEAR     69  66  90 N5        29.96R
SELINSGROVE    PTCLDY    69  66  90 CALM      29.96R
FT INDIANTOWN  PTCLDY    72  72 100 N3        29.95R
CAPITAL CITY   PTCLDY    78  67  68 W9        29.94R
HARRISBURG     MOCLDY    79  68  69 W6        29.93R
YORK           MOCLDY    75  67  76 N3        29.95R
$$

PAZ038>040-043-044-047-048-054-055-060>062-067>071-100300-
EASTERN PENNSYLVANIA

CITY           SKY/WX    TMP DP  RH WIND       PRES   REMARKS
SCRANTON       PTCLDY    67  61  81 E3        29.98R
MOUNT POCONO   CLOUDY    67  60  78 NW3       30.02R
ALLENTOWN      MOCLDY    74  67  78 NE3       29.94R
QUAKERTOWN*    MOCLDY    73  68  83 CALM      29.96R
READING        MOCLDY    75  67  76 S5        29.93R
LANCASTER      MOCLDY    75  63  66 SW5       29.94R
COATESVILLE    CLOUDY    73  70  88 CALM      29.97R
POTTSTOWN      MOCLDY    77  66  68 SW5       29.96R
BLUE BELL      CLOUDY    79  68  69 SW3       29.93S
DOYLESTOWN     CLOUDY    76  66  71 CALM      29.94R
WILLOW GROVE   NOT AVBL
NORTH PHILA    CLOUDY    83  69  62 SW6       29.94R
PHILADELPHIA   CLOUDY    81  69  67 S10       29.94R
$$


USA.gov is the U.S. government's official web portal to all federal, state and local government web resources and services.